CFTIW CYXU-CYTZ

Flight info

Callsign CFTIW
Flight time N/A
Altitude 5000
Route DCT
Aircraft BE58/L-SDE3/1200

Departure

Time 2026-04-26 12:24
Airport London International Airport (CYXU)

Arrival

Time N/A
Airport Billy Bishop Toronto City Airport (CYTZ)
Time Latitude Longitude Altitude Speed Heading
2026-04-26 12:15 43.02878 -81.14779 903 ft 0 kts 319°
2026-04-26 12:19 43.02868 -81.14767 903 ft 2 kts 319°
2026-04-26 12:19 43.02862 -81.14760 903 ft 0 kts 319°
2026-04-26 12:20 43.02866 -81.14763 894 ft 4 kts 348°
2026-04-26 12:20 43.02930 -81.14768 903 ft 13 kts 328°
2026-04-26 12:20 43.03038 -81.14891 903 ft 22 kts 318°
2026-04-26 12:20 43.03173 -81.15056 903 ft 30 kts 317°
2026-04-26 12:21 43.03316 -81.15229 903 ft 24 kts 315°
2026-04-26 12:21 43.03432 -81.15365 903 ft 21 kts 319°
2026-04-26 12:21 43.03549 -81.15507 903 ft 25 kts 321°
2026-04-26 12:21 43.03682 -81.15662 903 ft 26 kts 319°
2026-04-26 12:22 43.03813 -81.15823 902 ft 24 kts 316°
2026-04-26 12:22 43.03934 -81.15970 902 ft 21 kts 320°
2026-04-26 12:22 43.04037 -81.16012 903 ft 12 kts
2026-04-26 12:22 43.04062 -81.16010 903 ft 0 kts
2026-04-26 12:23 43.04095 -81.16000 904 ft 16 kts 20°
2026-04-26 12:23 43.04127 -81.15883 904 ft 12 kts 123°
2026-04-26 12:23 43.04014 -81.15738 903 ft 50 kts 137°
2026-04-26 12:24 43.03539 -81.15185 935 ft 121 kts 138°
2026-04-26 12:24 43.02846 -81.14475 1456 ft 124 kts 144°
2026-04-26 12:24 43.02092 -81.13839 2061 ft 124 kts 135°
2026-04-26 12:25 43.01703 -81.11934 3456 ft 108 kts 71°
2026-04-26 12:25 43.02235 -81.11169 3966 ft 118 kts 36°
2026-04-26 12:25 43.02971 -81.10561 4416 ft 125 kts 34°
2026-04-26 12:25 43.03662 -81.09895 4953 ft 122 kts 39°
2026-04-26 12:26 43.04403 -81.09094 5009 ft 147 kts 39°
2026-04-26 12:26 43.05236 -81.08186 5015 ft 158 kts 39°
2026-04-26 12:26 43.06079 -81.07212 5017 ft 163 kts 47°
2026-04-26 12:26 43.06688 -81.05931 5016 ft 160 kts 64°
2026-04-26 12:27 43.07067 -81.04499 5009 ft 160 kts 72°
2026-04-26 12:27 43.07466 -81.03088 5011 ft 159 kts 62°
2026-04-26 12:27 43.07969 -81.01742 5015 ft 159 kts 63°
2026-04-26 12:27 43.08453 -81.00375 5000 ft 160 kts 63°
2026-04-26 12:28 43.08930 -80.99008 5005 ft 159 kts 64°
2026-04-26 12:28 43.09406 -80.97639 5000 ft 159 kts 64°
2026-04-26 12:28 43.09882 -80.96271 4999 ft 159 kts 64°
2026-04-26 12:28 43.10359 -80.94903 5001 ft 159 kts 64°
2026-04-26 12:29 43.10834 -80.93535 5003 ft 159 kts 64°
2026-04-26 12:29 43.11310 -80.92165 5002 ft 159 kts 64°
2026-04-26 12:29 43.12257 -80.89437 5002 ft 159 kts 64°
2026-04-26 12:30 43.12731 -80.88069 5003 ft 159 kts 64°
2026-04-26 12:30 43.13206 -80.86702 5005 ft 159 kts 64°
2026-04-26 12:30 43.13680 -80.85335 5005 ft 159 kts 64°
2026-04-26 12:31 43.14628 -80.82595 5005 ft 159 kts 64°
2026-04-26 12:31 43.15097 -80.81242 5009 ft 159 kts 64°
2026-04-26 12:31 43.15577 -80.79854 5009 ft 159 kts 64°
2026-04-26 12:31 43.16048 -80.78491 5009 ft 159 kts 64°
2026-04-26 12:32 43.16525 -80.77113 5010 ft 159 kts 64°
2026-04-26 12:32 43.16998 -80.75743 5008 ft 159 kts 64°
2026-04-26 12:32 43.17943 -80.73005 5010 ft 159 kts 64°
2026-04-26 12:33 43.18414 -80.71637 5011 ft 159 kts 64°
2026-04-26 12:33 43.18887 -80.70265 5009 ft 159 kts 64°
2026-04-26 12:33 43.19359 -80.68894 5009 ft 159 kts 64°
2026-04-26 12:33 43.19827 -80.67537 5008 ft 159 kts 64°
2026-04-26 12:34 43.20305 -80.66147 5008 ft 160 kts 64°
2026-04-26 12:34 43.20772 -80.64791 5010 ft 159 kts 64°
2026-04-26 12:34 43.21245 -80.63417 5010 ft 160 kts 64°
2026-04-26 12:34 43.21718 -80.62039 5008 ft 159 kts 64°
2026-04-26 12:35 43.22190 -80.60662 5009 ft 160 kts 64°
2026-04-26 12:35 43.22663 -80.59285 5008 ft 160 kts 65°
2026-04-26 12:35 43.23135 -80.57909 5008 ft 160 kts 64°
2026-04-26 12:35 43.23608 -80.56530 5007 ft 159 kts 64°
2026-04-26 12:36 43.24079 -80.55155 5008 ft 160 kts 64°
2026-04-26 12:36 43.24552 -80.53777 5010 ft 160 kts 65°
2026-04-26 12:36 43.25024 -80.52397 5008 ft 160 kts 64°
2026-04-26 12:36 43.25496 -80.51019 5005 ft 160 kts 65°
2026-04-26 12:37 43.25968 -80.49639 5007 ft 160 kts 64°
2026-04-26 12:37 43.26440 -80.48260 5006 ft 160 kts 65°
2026-04-26 12:37 43.26913 -80.46876 5008 ft 160 kts 65°
2026-04-26 12:37 43.27387 -80.45487 5005 ft 160 kts 65°
2026-04-26 12:38 43.27860 -80.44102 5008 ft 160 kts 65°
2026-04-26 12:38 43.28326 -80.42737 5006 ft 160 kts 65°
2026-04-26 12:38 43.28798 -80.41352 5003 ft 160 kts 65°
2026-04-26 12:38 43.29269 -80.39969 5005 ft 160 kts 65°
2026-04-26 12:39 43.29739 -80.38589 5007 ft 160 kts 65°
2026-04-26 12:39 43.30211 -80.37205 5007 ft 160 kts 65°
2026-04-26 12:39 43.30682 -80.35822 5001 ft 160 kts 65°
2026-04-26 12:39 43.31152 -80.34438 5004 ft 160 kts 65°
2026-04-26 12:40 43.31623 -80.33055 5000 ft 160 kts 65°
2026-04-26 12:40 43.32093 -80.31672 5003 ft 160 kts 65°
2026-04-26 12:40 43.32564 -80.30286 5002 ft 160 kts 65°
2026-04-26 12:40 43.33033 -80.28904 5006 ft 160 kts 65°
2026-04-26 12:41 43.33502 -80.27521 5005 ft 160 kts 65°
2026-04-26 12:41 43.33972 -80.26134 5003 ft 160 kts 65°
2026-04-26 12:41 43.34441 -80.24751 5003 ft 160 kts 65°
2026-04-26 12:41 43.34911 -80.23362 5005 ft 160 kts 65°
2026-04-26 12:42 43.35382 -80.21975 5002 ft 160 kts 65°
2026-04-26 12:42 43.35851 -80.20588 5003 ft 160 kts 65°
2026-04-26 12:42 43.36320 -80.19202 5006 ft 160 kts 65°
2026-04-26 12:42 43.36788 -80.17816 5004 ft 160 kts 65°
2026-04-26 12:43 43.37257 -80.16431 5006 ft 160 kts 65°
2026-04-26 12:43 43.37724 -80.15050 5007 ft 160 kts 65°
2026-04-26 12:43 43.38034 -80.14128 5005 ft 160 kts 65°
2026-04-26 12:43 43.38659 -80.12277 5006 ft 160 kts 66°
2026-04-26 12:44 43.38969 -80.11356 5009 ft 160 kts 65°
2026-04-26 12:44 43.39437 -80.09969 5006 ft 160 kts 65°
2026-04-26 12:44 43.39905 -80.08579 5008 ft 160 kts 66°
2026-04-26 12:44 43.40524 -80.06743 5007 ft 159 kts 66°
2026-04-26 12:45 43.40838 -80.05809 5011 ft 159 kts 65°
2026-04-26 12:45 43.41303 -80.04427 5012 ft 159 kts 66°
2026-04-26 12:45 43.41768 -80.03044 5017 ft 159 kts 65°
2026-04-26 12:45 43.42232 -80.01665 5020 ft 159 kts 65°
2026-04-26 12:46 43.42696 -80.00283 5019 ft 159 kts 65°
2026-04-26 12:46 43.43160 -79.98902 5020 ft 159 kts 65°
2026-04-26 12:46 43.43618 -79.97538 5018 ft 159 kts 66°
2026-04-26 12:46 43.44081 -79.96156 5016 ft 159 kts 66°
2026-04-26 12:47 43.44543 -79.94776 5020 ft 159 kts 66°
2026-04-26 12:47 43.45006 -79.93395 5022 ft 159 kts 66°
2026-04-26 12:47 43.45469 -79.92013 5018 ft 159 kts 66°
2026-04-26 12:47 43.45932 -79.90630 5022 ft 159 kts 66°
2026-04-26 12:48 43.46394 -79.89249 5025 ft 159 kts 66°
2026-04-26 12:48 43.46856 -79.87867 5023 ft 159 kts 66°
2026-04-26 12:48 43.47316 -79.86489 5026 ft 158 kts 66°
2026-04-26 12:48 43.47777 -79.85112 5020 ft 158 kts 66°
2026-04-26 12:49 43.48236 -79.83738 5022 ft 158 kts 66°
2026-04-26 12:49 43.48696 -79.82359 5020 ft 158 kts 66°
2026-04-26 12:49 43.49156 -79.80978 5021 ft 158 kts 66°
2026-04-26 12:49 43.49615 -79.79600 5018 ft 158 kts 66°
2026-04-26 12:50 43.50076 -79.78220 5021 ft 159 kts 66°
2026-04-26 12:50 43.50536 -79.76838 5018 ft 159 kts 66°
2026-04-26 12:50 43.50996 -79.75455 5022 ft 159 kts 66°
2026-04-26 12:50 43.51456 -79.74071 5021 ft 159 kts 66°
2026-04-26 12:51 43.51916 -79.72689 5019 ft 159 kts 66°
2026-04-26 12:51 43.52376 -79.71303 5022 ft 159 kts 66°
2026-04-26 12:51 43.52837 -79.69918 5019 ft 159 kts 66°
2026-04-26 12:51 43.53297 -79.68531 5020 ft 159 kts 66°
2026-04-26 12:52 43.53757 -79.67143 5021 ft 159 kts 66°
2026-04-26 12:52 43.54217 -79.65756 5026 ft 159 kts 66°
2026-04-26 12:52 43.54679 -79.64365 5018 ft 159 kts 66°
2026-04-26 12:52 43.55139 -79.62973 5019 ft 159 kts 66°
2026-04-26 12:53 43.55599 -79.61585 5020 ft 159 kts 66°
2026-04-26 12:53 43.56060 -79.60195 5019 ft 159 kts 66°
2026-04-26 12:53 43.56519 -79.58805 5017 ft 159 kts 66°
2026-04-26 12:53 43.56979 -79.57414 5019 ft 159 kts 66°
2026-04-26 12:54 43.57439 -79.56024 5020 ft 160 kts 66°
2026-04-26 12:54 43.57892 -79.54649 5022 ft 160 kts 66°
2026-04-26 12:54 43.58352 -79.53256 5029 ft 160 kts 66°
2026-04-26 12:54 43.58818 -79.51844 5031 ft 159 kts 66°
2026-04-26 12:55 43.59271 -79.50471 5030 ft 159 kts 66°
2026-04-26 12:55 43.59730 -79.49078 5028 ft 160 kts 66°
2026-04-26 12:55 43.60190 -79.47682 5029 ft 160 kts 66°
2026-04-26 12:55 43.60650 -79.46286 5027 ft 160 kts 66°
2026-04-26 12:56 43.61108 -79.44892 5025 ft 160 kts 66°
2026-04-26 12:56 43.61567 -79.43497 5027 ft 160 kts 66°
2026-04-26 12:56 43.62027 -79.42097 5029 ft 160 kts 66°
2026-04-26 12:56 43.62486 -79.40701 5027 ft 160 kts 66°
2026-04-26 12:57 43.62946 -79.39299 5028 ft 160 kts 66°
2026-04-26 12:57 43.63406 -79.37898 5022 ft 160 kts 66°
2026-04-26 12:57 43.63866 -79.36496 5033 ft 160 kts 66°
2026-04-26 12:58 43.64787 -79.33686 5024 ft 160 kts 66°
2026-04-26 12:58 43.65247 -79.32282 5029 ft 161 kts 66°
2026-04-26 12:58 43.65708 -79.30874 5026 ft 161 kts 66°
2026-04-26 12:58 43.66168 -79.29467 5030 ft 161 kts 66°
2026-04-26 12:59 43.66628 -79.28059 5031 ft 161 kts 66°
2026-04-26 12:59 43.67089 -79.26651 5029 ft 161 kts 66°
2026-04-26 12:59 43.67549 -79.25242 5025 ft 161 kts 66°
2026-04-26 12:59 43.68009 -79.23833 5027 ft 161 kts 66°
2026-04-26 13:00 43.68469 -79.22424 5026 ft 161 kts 66°
2026-04-26 13:00 43.68929 -79.21012 5024 ft 161 kts 66°
2026-04-26 13:00 43.69389 -79.19600 5021 ft 161 kts 66°
2026-04-26 13:00 43.69849 -79.18191 5024 ft 161 kts 66°
2026-04-26 13:01 43.70302 -79.16799 5023 ft 161 kts 66°
2026-04-26 13:01 43.70762 -79.15386 5021 ft 161 kts 66°
2026-04-26 13:01 43.71222 -79.13972 5023 ft 161 kts 66°
2026-04-26 13:01 43.71682 -79.12557 5020 ft 161 kts 66°
2026-04-26 13:02 43.72142 -79.11142 5027 ft 161 kts 66°
2026-04-26 13:02 43.72600 -79.09729 5020 ft 161 kts 66°
2026-04-26 13:02 43.73060 -79.08313 5019 ft 162 kts 66°
2026-04-26 13:02 43.73521 -79.06892 5022 ft 162 kts 66°
2026-04-26 13:03 43.73981 -79.05474 5019 ft 162 kts 66°
2026-04-26 13:03 43.74440 -79.04057 5019 ft 161 kts 66°
2026-04-26 13:03 43.74900 -79.02637 5017 ft 162 kts 66°
2026-04-26 13:03 43.75360 -79.01216 5018 ft 162 kts 66°
2026-04-26 13:04 43.75820 -78.99796 5019 ft 162 kts 66°
2026-04-26 13:04 43.76277 -78.98379 5029 ft 162 kts 66°
2026-04-26 13:04 43.76737 -78.96959 5026 ft 162 kts 66°
2026-04-26 13:04 43.77196 -78.95537 5027 ft 162 kts 66°
2026-04-26 13:05 43.77655 -78.94115 5023 ft 162 kts 66°
2026-04-26 13:05 43.78114 -78.92692 5024 ft 162 kts 66°
2026-04-26 13:05 43.78574 -78.91265 5020 ft 162 kts 66°
2026-04-26 13:05 43.79033 -78.89842 5025 ft 162 kts 66°
2026-04-26 13:06 43.79492 -78.88416 5023 ft 162 kts 66°
2026-04-26 13:06 43.79952 -78.86988 5026 ft 162 kts 66°
2026-04-26 13:06 43.80411 -78.85563 5025 ft 162 kts 66°
2026-04-26 13:06 43.80871 -78.84133 5021 ft 162 kts 66°
2026-04-26 13:07 43.81329 -78.82706 5023 ft 162 kts 66°
2026-04-26 13:07 43.81782 -78.81297 5022 ft 162 kts 66°
2026-04-26 13:07 43.82247 -78.79849 5022 ft 162 kts 66°
2026-04-26 13:07 43.82700 -78.78440 5023 ft 163 kts 66°
2026-04-26 13:08 43.83158 -78.77008 5025 ft 163 kts 66°
2026-04-26 13:08 43.83617 -78.75577 5022 ft 163 kts 66°
2026-04-26 13:08 43.84076 -78.74145 5021 ft 162 kts 66°
2026-04-26 13:08 43.84534 -78.72714 5022 ft 162 kts 66°
2026-04-26 13:09 43.84993 -78.71283 5021 ft 162 kts 66°
2026-04-26 13:09 43.85451 -78.69849 5019 ft 162 kts 66°
2026-04-26 13:09 43.85908 -78.68419 5021 ft 162 kts 66°
2026-04-26 13:09 43.86367 -78.66984 5019 ft 163 kts 66°
2026-04-26 13:10 43.86824 -78.65551 5015 ft 163 kts 66°
2026-04-26 13:10 43.87283 -78.64115 5021 ft 163 kts 66°
2026-04-26 13:10 43.87742 -78.62677 5028 ft 163 kts 66°
2026-04-26 13:10 43.88200 -78.61239 5020 ft 163 kts 66°
2026-04-26 13:11 43.88659 -78.59801 5023 ft 163 kts 66°
2026-04-26 13:11 43.89117 -78.58359 5023 ft 163 kts 66°
2026-04-26 13:11 43.89576 -78.56920 5023 ft 163 kts 66°
2026-04-26 13:11 43.90033 -78.55481 5020 ft 163 kts 66°
2026-04-26 13:12 43.90492 -78.54038 5021 ft 163 kts 66°
2026-04-26 13:12 43.90951 -78.52597 5017 ft 163 kts 66°
2026-04-26 13:12 43.91515 -78.51243 5019 ft 163 kts 43°
2026-04-26 13:12 43.92565 -78.50737 5017 ft 166 kts 357°
2026-04-26 13:13 43.93579 -78.51462 5015 ft 170 kts 311°
2026-04-26 13:13 43.93933 -78.53000 5017 ft 173 kts 266°
2026-04-26 13:13 43.93615 -78.54605 5024 ft 173 kts 251°
2026-04-26 13:13 43.93226 -78.56184 5034 ft 173 kts 251°
2026-04-26 13:14 43.92834 -78.57765 5038 ft 174 kts 251°
2026-04-26 13:14 43.92444 -78.59328 5039 ft 174 kts 251°
2026-04-26 13:14 43.92048 -78.60914 5039 ft 174 kts 251°
2026-04-26 13:14 43.91650 -78.62499 5040 ft 174 kts 251°
2026-04-26 13:15 43.91255 -78.64083 5038 ft 174 kts 251°
2026-04-26 13:15 43.90857 -78.65671 5038 ft 174 kts 251°
2026-04-26 13:15 43.90461 -78.67261 5038 ft 174 kts 251°
2026-04-26 13:15 43.90192 -78.68333 5041 ft 174 kts 251°
2026-04-26 13:16 43.89666 -78.70433 5043 ft 174 kts 251°
2026-04-26 13:16 43.89267 -78.72019 5041 ft 174 kts 251°
2026-04-26 13:16 43.88872 -78.73604 5041 ft 174 kts 251°
2026-04-26 13:16 43.88474 -78.75193 5045 ft 174 kts 251°
2026-04-26 13:17 43.87682 -78.78368 5044 ft 174 kts 251°
2026-04-26 13:17 43.87291 -78.79956 5043 ft 174 kts 253°
2026-04-26 13:18 43.86776 -78.83227 5041 ft 174 kts 259°
2026-04-26 13:18 43.86538 -78.84868 5039 ft 174 kts 259°
2026-04-26 13:18 43.86065 -78.88160 5043 ft 174 kts 259°
2026-04-26 13:19 43.85828 -78.89804 5040 ft 174 kts 259°
2026-04-26 13:19 43.85591 -78.91446 5040 ft 174 kts 259°
2026-04-26 13:19 43.85354 -78.93090 5041 ft 174 kts 259°
2026-04-26 13:19 43.85117 -78.94736 5042 ft 174 kts 259°
2026-04-26 13:20 43.84881 -78.96381 5040 ft 174 kts 259°
2026-04-26 13:20 43.84648 -78.98005 5043 ft 174 kts 259°
2026-04-26 13:20 43.84408 -78.99670 5038 ft 174 kts 259°
2026-04-26 13:20 43.84171 -79.01316 5036 ft 174 kts 259°
2026-04-26 13:21 43.83932 -79.02959 5040 ft 174 kts 259°
2026-04-26 13:21 43.83775 -79.04048 5039 ft 174 kts 259°
2026-04-26 13:21 43.83461 -79.06229 5040 ft 174 kts 260°
2026-04-26 13:21 43.83224 -79.07876 5035 ft 174 kts 259°
2026-04-26 13:22 43.82986 -79.09525 5034 ft 175 kts 259°
2026-04-26 13:22 43.82748 -79.11174 5037 ft 175 kts 259°
2026-04-26 13:22 43.82511 -79.12821 5038 ft 174 kts 259°
2026-04-26 13:22 43.82275 -79.14469 5035 ft 174 kts 260°
2026-04-26 13:23 43.82038 -79.16117 5034 ft 174 kts 259°
2026-04-26 13:23 43.81803 -79.17764 5035 ft 174 kts 259°
2026-04-26 13:23 43.81568 -79.19412 5037 ft 174 kts 260°
2026-04-26 13:23 43.81334 -79.21061 5034 ft 175 kts 260°
2026-04-26 13:24 43.81100 -79.22712 5035 ft 175 kts 260°
2026-04-26 13:24 43.80868 -79.24361 5036 ft 175 kts 260°
2026-04-26 13:24 43.80634 -79.26013 5036 ft 175 kts 260°
2026-04-26 13:24 43.80401 -79.27668 5034 ft 175 kts 260°
2026-04-26 13:25 43.80165 -79.29320 5034 ft 175 kts 259°
2026-04-26 13:25 43.79819 -79.30934 5033 ft 175 kts 251°
2026-04-26 13:25 43.79382 -79.32507 5033 ft 175 kts 249°
2026-04-26 13:25 43.78935 -79.34076 5030 ft 175 kts 249°
2026-04-26 13:26 43.78487 -79.35643 5030 ft 175 kts 249°
2026-04-26 13:26 43.78038 -79.37211 5031 ft 175 kts 249°
2026-04-26 13:26 43.77589 -79.38781 5031 ft 175 kts 249°
2026-04-26 13:26 43.77140 -79.40350 5032 ft 176 kts 249°
2026-04-26 13:27 43.76691 -79.41920 5031 ft 176 kts 249°
2026-04-26 13:27 43.76243 -79.43493 5030 ft 176 kts 249°
2026-04-26 13:27 43.75794 -79.45068 5029 ft 176 kts 249°
2026-04-26 13:27 43.75346 -79.46647 5030 ft 176 kts 249°
2026-04-26 13:28 43.75051 -79.47688 5030 ft 176 kts 249°
2026-04-26 13:28 43.74603 -79.49259 5038 ft 176 kts 249°
2026-04-26 13:28 43.74008 -79.51345 5038 ft 176 kts 249°
2026-04-26 13:28 43.73557 -79.52922 5042 ft 176 kts 249°
2026-04-26 13:29 43.73109 -79.54496 5039 ft 176 kts 249°
2026-04-26 13:29 43.72806 -79.55559 5039 ft 176 kts 249°
2026-04-26 13:29 43.72357 -79.57140 5038 ft 176 kts 249°
2026-04-26 13:29 43.71909 -79.58714 5038 ft 176 kts 249°
2026-04-26 13:30 43.71461 -79.60292 5035 ft 176 kts 249°
2026-04-26 13:30 43.71020 -79.61847 5039 ft 176 kts 249°
2026-04-26 13:30 43.70572 -79.63421 5037 ft 176 kts 249°
2026-04-26 13:30 43.70124 -79.64997 5037 ft 176 kts 249°
2026-04-26 13:31 43.69678 -79.66575 5037 ft 176 kts 249°
2026-04-26 13:31 43.69234 -79.68150 5036 ft 176 kts 249°
2026-04-26 13:31 43.68790 -79.69724 5037 ft 176 kts 249°
2026-04-26 13:31 43.68344 -79.71302 5034 ft 176 kts 249°
2026-04-26 13:32 43.67898 -79.72881 5035 ft 177 kts 249°
2026-04-26 13:32 43.67449 -79.74464 5037 ft 177 kts 249°
2026-04-26 13:32 43.67000 -79.76047 5033 ft 177 kts 249°
2026-04-26 13:32 43.66552 -79.77629 5036 ft 177 kts 249°
2026-04-26 13:33 43.66106 -79.79211 5032 ft 177 kts 249°
2026-04-26 13:33 43.65660 -79.80794 5033 ft 177 kts 249°
2026-04-26 13:33 43.65215 -79.82374 5036 ft 176 kts 249°
2026-04-26 13:33 43.64771 -79.83951 5037 ft 176 kts 249°
2026-04-26 13:34 43.64327 -79.85527 5034 ft 177 kts 249°
2026-04-26 13:34 43.63881 -79.87110 5035 ft 177 kts 249°
2026-04-26 13:34 43.63435 -79.88694 5034 ft 177 kts 249°
2026-04-26 13:34 43.63139 -79.89745 5031 ft 177 kts 249°
2026-04-26 13:35 43.62540 -79.91872 5032 ft 178 kts 249°
2026-04-26 13:35 43.62091 -79.93465 5030 ft 178 kts 249°
2026-04-26 13:35 43.61644 -79.95060 5032 ft 178 kts 249°
2026-04-26 13:35 43.61198 -79.96650 5028 ft 178 kts 249°
2026-04-26 13:36 43.60751 -79.98242 5024 ft 178 kts 249°
2026-04-26 13:36 43.60305 -79.99836 5027 ft 178 kts 249°
2026-04-26 13:36 43.59859 -80.01424 5028 ft 178 kts 249°
2026-04-26 13:36 43.59417 -80.02992 5026 ft 178 kts 249°
2026-04-26 13:37 43.58968 -80.04582 5021 ft 178 kts 249°
2026-04-26 13:37 43.58518 -80.06175 5022 ft 178 kts 249°
2026-04-26 13:37 43.58069 -80.07767 5019 ft 179 kts 249°
2026-04-26 13:37 43.57617 -80.09361 5021 ft 178 kts 249°
2026-04-26 13:38 43.57168 -80.10951 5021 ft 178 kts 249°
2026-04-26 13:38 43.56717 -80.12542 5022 ft 178 kts 249°
2026-04-26 13:38 43.56270 -80.14133 5022 ft 178 kts 249°
2026-04-26 13:38 43.55819 -80.15725 5021 ft 178 kts 249°
2026-04-26 13:39 43.55371 -80.17310 5020 ft 178 kts 249°
2026-04-26 13:39 43.54921 -80.18902 5017 ft 178 kts 249°
2026-04-26 13:39 43.54473 -80.20493 5018 ft 179 kts 249°
2026-04-26 13:39 43.54022 -80.22093 5018 ft 179 kts 249°
2026-04-26 13:40 43.53569 -80.23690 5019 ft 179 kts 250°
2026-04-26 13:40 43.53123 -80.25267 5019 ft 179 kts 249°
2026-04-26 13:40 43.52670 -80.26860 5018 ft 179 kts 249°
2026-04-26 13:40 43.52216 -80.28456 5020 ft 179 kts 249°
2026-04-26 13:41 43.51761 -80.30052 5018 ft 179 kts 249°
2026-04-26 13:41 43.51307 -80.31642 5019 ft 178 kts 249°
2026-04-26 13:41 43.50854 -80.33234 5018 ft 178 kts 250°
2026-04-26 13:41 43.50398 -80.34823 5018 ft 178 kts 250°
2026-04-26 13:42 43.49943 -80.36410 5019 ft 178 kts 250°
2026-04-26 13:42 43.49490 -80.37998 5019 ft 179 kts 249°
2026-04-26 13:42 43.49036 -80.39597 5020 ft 179 kts 250°
2026-04-26 13:42 43.48581 -80.41193 5016 ft 179 kts 250°
2026-04-26 13:43 43.48127 -80.42791 5020 ft 179 kts 250°
2026-04-26 13:43 43.47676 -80.44386 5019 ft 179 kts 250°
2026-04-26 13:43 43.47222 -80.45980 5017 ft 178 kts 250°
2026-04-26 13:43 43.46767 -80.47568 5020 ft 179 kts 250°
2026-04-26 13:44 43.46317 -80.49162 5019 ft 178 kts 250°
2026-04-26 13:44 43.45847 -80.50739 5014 ft 178 kts 240°
2026-04-26 13:44 43.44913 -80.51792 5013 ft 176 kts 195°
2026-04-26 13:44 43.43742 -80.51661 5011 ft 169 kts 149°
2026-04-26 13:45 43.43023 -80.50507 5013 ft 161 kts 105°
2026-04-26 13:45 43.43119 -80.49009 5020 ft 157 kts 68°
2026-04-26 13:45 43.43559 -80.47628 5029 ft 158 kts 66°
2026-04-26 13:45 43.43999 -80.46259 5034 ft 158 kts 66°
2026-04-26 13:46 43.44450 -80.44872 5033 ft 159 kts 66°
2026-04-26 13:46 43.44902 -80.43489 5033 ft 159 kts 66°
2026-04-26 13:46 43.45354 -80.42107 5035 ft 158 kts 66°
2026-04-26 13:46 43.45808 -80.40722 5031 ft 159 kts 65°
2026-04-26 13:47 43.46262 -80.39334 5032 ft 159 kts 65°
2026-04-26 13:47 43.46718 -80.37948 5033 ft 159 kts 65°
2026-04-26 13:47 43.47173 -80.36560 5028 ft 159 kts 65°
2026-04-26 13:47 43.47625 -80.35171 5029 ft 159 kts 65°
2026-04-26 13:48 43.48078 -80.33785 5033 ft 159 kts 66°
2026-04-26 13:48 43.48531 -80.32399 5031 ft 158 kts 65°
2026-04-26 13:48 43.48983 -80.31020 5028 ft 158 kts 65°
2026-04-26 13:48 43.49433 -80.29642 5028 ft 158 kts 65°
2026-04-26 13:49 43.49889 -80.28255 5028 ft 159 kts 66°
2026-04-26 13:49 43.50347 -80.26871 5029 ft 159 kts 65°
2026-04-26 13:49 43.50803 -80.25485 5029 ft 159 kts 65°
2026-04-26 13:49 43.51255 -80.24116 5029 ft 159 kts 65°
2026-04-26 13:50 43.51711 -80.22728 5031 ft 159 kts 65°
2026-04-26 13:50 43.52146 -80.21305 5036 ft 159 kts 73°
2026-04-26 13:50 43.52371 -80.19833 5036 ft 159 kts 78°
2026-04-26 13:50 43.52579 -80.18334 5035 ft 160 kts 78°
2026-04-26 13:51 43.52786 -80.16832 5033 ft 160 kts 78°
2026-04-26 13:51 43.52897 -80.15324 5032 ft 161 kts 99°
2026-04-26 13:51 43.52380 -80.13949 5034 ft 164 kts 121°
2026-04-26 13:51 43.51772 -80.12619 5033 ft 164 kts 119°
2026-04-26 13:52 43.51168 -80.11282 5037 ft 164 kts 119°
2026-04-26 13:52 43.50565 -80.09950 5039 ft 164 kts 119°
2026-04-26 13:52 43.49962 -80.08619 5035 ft 164 kts 119°
2026-04-26 13:52 43.49359 -80.07291 5037 ft 163 kts 119°
2026-04-26 13:53 43.48759 -80.05970 5037 ft 163 kts 119°